Weather History for KMHS - July, 2014

Change the Weather History Date:

Tuesday, July 15, 2014

  Actual Average Record
Temperature  
Mean Temperature 80 °F 68 °F  
Max Temperature 98 °F 86 °F 99 °F (1984)
Min Temperature 61 °F 50 °F 38 °F (1929)
Degree Days  
Heating Degree Days 0 1  
Month to date heating degree days 0 21  
Since 1 June heating degree days 56 163  
Since 1 July heating degree days 0 21  
Cooling Degree Days 15 4  
Month to date cooling degree days 158 51  
Year to date cooling degree days 225 96  
Since 1 June cooling degree days 216 88  
Growing Degree Days 30 (Base 50)    
Moisture  
Dew Point 51 °F    
Average Humidity 40    
Maximum Humidity 60    
Minimum Humidity 22    
Precipitation  
Precipitation 0.00 in 0.01 in 0.12 in (1975)
Month to date precipitation 0.06 0.24  
Year to date precipitation 11.89 26.84  
Sea Level Pressure  
Sea Level Pressure 30.00 in    
Wind  
Wind Speed 1 mph (NE)    
Max Wind Speed 6 mph    
Max Gust Speed 13 mph    
Visibility 10 miles    
Events      
T = Trace of Precipitation, MM = Missing Value Source: NWS Daily Summary

Daily Weather History Graph

Daily Weather History Graph

Search for Another Location

Airport or City:

Trip Planner

Search our weather history database for the weather conditions in past years. The results will help you decide how hot, cold, wet, or windy it might be!

Date:

Astronomy

Jul. 15, 2014 Rise Set
Actual Time 5:49 AM PDT 8:40 PM PDT
Civil Twilight 5:16 AM PDT 9:13 PM PDT
Nautical Twilight 4:35 AM PDT 9:54 PM PDT
Astronomical Twilight 3:47 AM PDT 10:42 PM PDT
Moon 10:48 PM PDT (7/15) 9:52 AM PDT (7/15)
Length of Visible Light 15h 57m
Length of Day
14h 51m
Waning Gibbous, 84% of the Moon is Illuminated
Jul 15
Waning Gibbous
Jul 18
Last Quarter
Jul 26
New
Aug 3
First Quarter
Aug 10
Full

Hourly Weather History & Observations

Time (PDT) Temp. Heat Index Dew Point Humidity Pressure Visibility Wind Dir Wind Speed Gust Speed Precip Events Conditions
12:56 AM 69.1 °F - 48.9 °F 49% 30.03 in 10.0 mi Calm Calm - N/A   Clear
1:56 AM 68.0 °F - 48.9 °F 50% 30.02 in 10.0 mi Variable 3.5 mph - N/A   Clear
2:56 AM 66.0 °F - 50.0 °F 56% 30.02 in 10.0 mi Calm Calm - N/A   Clear
3:56 AM 66.9 °F - 50.0 °F 54% 30.01 in 10.0 mi Calm Calm - N/A   Clear
4:56 AM 63.0 °F - 48.9 °F 60% 30.03 in 10.0 mi NE 3.5 mph - N/A   Clear
5:56 AM 62.1 °F - 48.9 °F 62% 30.04 in 10.0 mi Calm Calm - N/A   Clear
6:56 AM 62.1 °F - 48.9 °F 62% 30.05 in 10.0 mi NE 3.5 mph - N/A   Clear
7:56 AM 71.1 °F - 54.0 °F 55% 30.04 in 10.0 mi Calm Calm - N/A   Clear
8:56 AM 78.1 °F - 55.0 °F 45% 30.04 in 10.0 mi Variable 3.5 mph - N/A   Clear
9:56 AM 84.0 °F 83.0 °F 55.9 °F 38% 30.02 in 10.0 mi Calm Calm - N/A   Clear
10:56 AM 89.1 °F 87.1 °F 55.0 °F 31% 30.01 in 10.0 mi Calm Calm - N/A   Clear
11:56 AM 91.0 °F 88.9 °F 55.0 °F 29% 30.00 in 10.0 mi Calm Calm - N/A   Clear
12:56 PM 91.0 °F 90.2 °F 59.0 °F 34% 29.99 in 10.0 mi Calm Calm - N/A   Clear
1:56 PM 97.0 °F 94.6 °F 53.1 °F 23% 29.97 in 10.0 mi Calm Calm - N/A   Clear
2:56 PM 97.0 °F - 51.1 °F 21% 29.96 in 10.0 mi Variable 4.6 mph - N/A   Clear
3:56 PM 91.0 °F - 51.1 °F 25% 29.95 in 10.0 mi Variable 3.5 mph - N/A   Clear
4:56 PM 93.0 °F - 48.9 °F 22% 29.94 in 10.0 mi Calm Calm - N/A   Clear
5:56 PM 90.0 °F - 51.1 °F 26% 29.94 in 10.0 mi North - - N/A   Clear
6:56 PM 86.0 °F - 52.0 °F 31% 29.96 in 10.0 mi North - - N/A   Clear
7:56 PM 82.0 °F - 48.9 °F 31% 29.97 in 10.0 mi Calm Calm - N/A   Clear
8:56 PM 79.0 °F - 46.9 °F 32% 29.99 in 10.0 mi Calm Calm - N/A   Clear
9:56 PM 77.0 °F - 46.9 °F 34% 30.01 in 10.0 mi Calm Calm - N/A   Clear
10:56 PM 72.0 °F - 48.0 °F 43% 30.02 in 10.0 mi Calm Calm - N/A   Clear
11:56 PM 68.0 °F - 48.9 °F 50% 30.02 in 10.0 mi Calm Calm - N/A   Clear